Flag for Canada Weather past 2 weeks in Taloyoak, Nunavut Territory, Canada

Now
-33 °F

Passing clouds.


Feels Like: -57 °F
Forecast: -27 / -18 °F
Wind: 10 mph from South

Location: Spence Bay Airport

Current Time: Dec 28, 2014 at 1:14:44 AM

Latest Report: Dec 28, 2014 at 12:00 AM


Visibility: 15 mi

Pressure: 30.22 "Hg

Humidity: 74%

Dew point: -38 °F

Location of TaloyoakLocation

Historic Weather in Taloyoak — Graph

°F

Taloyoak temperature yesterday

Maximum temperature yesterday: -31 °F (at 7:00 PM)
Minimum temperature yesterday: -35 °F (at 12:00 AM)
Average temperature yesterday: -33 °F

Past Weeks' High & Low Weather Summary

 TemperatureHumidityPressure
High0 °F (Dec 16, 4:00 AM)84% (Dec 15, 8:00 PM)30.45 "Hg (Dec 15, 8:00 PM)
Low-36 °F (Dec 26, 4:00 PM)48% (Dec 26, 10:00 AM)29.54 "Hg (Dec 16, 12:00 PM)
Average-23 °F72%30.13 "Hg
* Reported Midnight between Dec 12 and Dec 13 — Midnight between Dec 27 and Dec 28, Taloyoak, Weather by CustomWeather, © 2014

Note: Actual official high and low records may vary slightly from our data, if they occured in-between our weather recording intervals... More about our weather records

Advertising

Taloyoak weather history for previous 24 hours

 ConditionsComfort  
Time TempWeatherWind HumidityBarometerVisibility
12:00 AM
Dec 28
-33 °FPassing clouds.10 mph74%30.22 "Hg15 mi
11:00 PM
Dec 27
-35 °FScattered clouds.12 mph73%30.22 "Hg15 mi
10:00 PM-33 °FPassing clouds.12 mph74%30.22 "Hg15 mi
9:00 PM-33 °FPassing clouds.12 mph74%30.24 "Hg15 mi
8:00 PM-31 °FPartly cloudy.9 mph67%30.26 "Hg15 mi
7:00 PM-31 °FPassing clouds.10 mph67%30.27 "Hg15 mi
6:00 PM-33 °FPassing clouds.8 mph74%30.28 "Hg15 mi
5:00 PM-33 °FSunny.9 mph74%30.29 "Hg15 mi
4:00 PM-33 °FPassing clouds.8 mph66%30.29 "Hg15 mi
3:00 PM-33 °FPassing clouds.9 mph74%30.29 "Hg15 mi
2:00 PM-33 °FPassing clouds.10 mph66%30.30 "Hg15 mi
1:00 PM-33 °FPassing clouds.10 mph66%30.30 "Hg15 mi
12:00 PM-35 °FPassing clouds.10 mph73%30.30 "Hg15 mi
11:00 AM-33 °FPassing clouds.10 mph66%30.31 "Hg15 mi
10:00 AM-33 °FPassing clouds.12 mph66%30.33 "Hg15 mi
9:00 AM-35 °FPassing clouds.12 mph73%30.34 "Hg15 mi
8:00 AM-33 °FSunny.13 mph66%30.33 "Hg15 mi
7:00 AM-33 °FSunny.12 mph66%30.34 "Hg15 mi
6:00 AM-33 °FSunny.12 mph66%30.35 "Hg15 mi
5:00 AM-33 °FSunny.12 mph66%30.36 "Hg15 mi
4:00 AM-33 °FClear.12 mph66%30.35 "Hg15 mi
3:00 AM-33 °FClear.10 mph66%30.37 "Hg15 mi
2:00 AM-35 °FClear.9 mph73%30.37 "Hg15 mi
1:00 AM-35 °FClear.9 mphN/A30.37 "Hg15 mi
Weather by CustomWeather, © 2014

See weather overviewHow to use our weather pages